Location: Izdebno
(52.6670°N, 16.2170°E)
Time: 06:02:38
(UTC+02:00)

Vanguard 2 Rocket - Pass Details

Date: 03 March 2024
Orbit: 555 x 3307 km, 32.9° (Epoch: 24 April)

Event Time Altitude Azimuth Distance (km) Brightness Sun altitude
Rises 16:16:10 0° 251° (WSW) 4,438 12.5 11.0°
Reaches altitude 10° 16:19:33 10° 237° (WSW) 3,847 12.9 10.5°
Maximum altitude 16:27:13 23° 191° (S) 3,697 10.6 9.5°
Drops below altitude 10° 16:37:56 10° 148° (SSE) 5,549 10.8 8.0°
Sets 16:44:20 0° 136° (SE) 6,940 11.2 7.1°
